Flag for U.S.A. Weather past 2 weeks in Charlotte, North Carolina, U.S.A.

Now
65 °F

Low clouds.


Feels Like: 65 °F
Forecast: 65 / 76 °F
Wind: 9 mph from North

Location: Charlotte / Douglas International Airport

Current Time: Sep 17, 2014 at 9:41:46 AM

Latest Report: Sep 17, 2014 at 8:52 AM


Visibility: 7 mi

Pressure: 29.98 "Hg

Humidity: 91%

Dew point: 62 °F

Location of CharlotteLocation

Historic Weather in Charlotte — Graph

°F

Charlotte temperature yesterday

Maximum temperature yesterday: 85 °F (at 2:52 PM)
Minimum temperature yesterday: 67 °F (at 11:52 PM)
Average temperature yesterday: 75 °F

Past Weeks' High & Low Weather Summary

 TemperatureHumidityPressure
High93 °F (Sep 2, 1:52 PM)94% (Sep 4, 1:52 AM)30.27 "Hg (Sep 4, 1:52 AM)
Low62 °F (Sep 14, 3:52 AM)37% (Sep 3, 4:52 PM)29.92 "Hg (Sep 16, 6:52 PM)
Average75 °F77%30.07 "Hg
* Reported Sep 2 7:52 AM — Sep 17 7:52 AM, Charlotte, Weather by CustomWeather, © 2014

Note: Actual official high and low records may vary slightly from our data, if they occured in-between our weather recording intervals... More about our weather records

Advertising

Charlotte weather history for previous 24 hours

 ConditionsComfort  
Time TempWeatherWind HumidityBarometerVisibility
7:52 AM
Sep 17
65 °FLow clouds.9 mph94%29.96 "Hg9 mi
6:52 AM66 °FLow clouds.6 mph93%29.95 "Hg7 mi
5:52 AM65 °FFog.No wind94%29.95 "Hg5 mi
4:52 AM64 °FFog.5 mph94%29.95 "Hg6 mi
3:52 AM64 °FPassing clouds.5 mph94%29.95 "Hg10 mi
2:52 AM64 °FPartly cloudy.3 mph94%29.96 "Hg10 mi
1:52 AM66 °FMostly cloudy.5 mph90%29.97 "Hg10 mi
12:52 AM67 °FOvercast.6 mph90%29.98 "Hg10 mi
11:52 PM
Sep 16
67 °FPassing clouds.3 mph90%29.96 "Hg10 mi
10:52 PM68 °FLight rain. Mostly cloudy.8 mph84%29.97 "Hg10 mi
9:52 PM69 °FThunderstorms. Mostly cloudy.5 mph90%29.98 "Hg10 mi
9:04 PM70 °FThunderstorms. Fog.8 mph88%29.99 "Hg3 mi
8:52 PM68 °FStrong thunderstorms. Fog.3 mph93%29.98 "Hg2 mi
7:52 PM75 °FBroken clouds.8 mph62%29.94 "Hg10 mi
6:52 PM81 °FPartly sunny.5 mph60%29.92 "Hg10 mi
5:52 PM82 °FScattered clouds.5 mph56%29.93 "Hg10 mi
4:52 PM85 °FScattered clouds.3 mph51%29.93 "Hg10 mi
3:52 PM85 °FScattered clouds.6 mph48%29.95 "Hg10 mi
2:52 PM85 °FScattered clouds.No wind50%29.97 "Hg10 mi
1:52 PM84 °FScattered clouds.No wind49%29.99 "Hg10 mi
12:52 PM83 °FScattered clouds.5 mph55%30.01 "Hg10 mi
11:52 AM80 °FScattered clouds.No wind62%30.03 "Hg10 mi
10:52 AM77 °FSunny.No wind71%30.04 "Hg10 mi
9:52 AM75 °FPassing clouds.5 mph76%30.05 "Hg10 mi
Weather by CustomWeather, © 2014

See weather overviewHow to use our weather pages